P/2022 L3 ( ATLAS )

Japanese version
Home page
Updated on November 26, 2022

---------------------------------------------------------------------

* Profile

Discovery Date June 12, 2022
Magnitude 17.6 mag
Discoverer Asteroid Terrestrial-Impact Last Alert System (ATLAS) search program

* Pictures

* Orbital Elements

Epoch 2022 Aug. 9.0 TT = JDT 2459800.5
T 2022 Oct. 29.96747 TT                                 Rudenko
q   2.4198315            (2000.0)            P               Q
n   0.05928020     Peri.   10.33232     +0.77072424     -0.61047523
a   6.5142276      Node    29.80532     +0.55526642     +0.50303886
e   0.6285313      Incl.   21.54004     +0.31251136     +0.61177765
P  16.6
>From 680 observations 2022 June 12-Nov. 10, mean residual 0".6.

* Finding Charts

* Magnitudes Graph

        m1 = 10.5 + 5 log d + 10.0 log r

---------------------------------------------------------------------

The orbital elements are published on M.P.E.C. 2022-V125.
The charts are made with StellaNavigator Ver.10 (AstroArts).
The magnitudes graphs are made with Comet for Windows.

---------------------------------------------------------------------

Copyright(C) Seiichi Yoshida (comet@aerith.net). All rights reserved.